Content
SEND FEEDBACK

Daily
Averages
Monthly
Summary
United States of America

HAWLEY, TEXAS


Home > North America > United States > Texas
Elevation: 1640 feet     Latitude: 32 37N     Longitude: 099 49W

WEATHER
 
SELECT A DAY
Number of Records: 155,870;   Date Range: 7/1/96 - 7/22/14
 
SHARE

PRINT THIS DATA

[ ← Previous Day ]
WEATHER ALMANAC - JANUARY 31, 2013
[ Next Day → ]
[ °C ]   °F
Weather ElementAverageHighLow
Temperature47.7 °F64.9 °F (3:55 pm)29.1 °F (2:55 am)
Dewpoint17 °F23.2 °F (8:55 pm)8.6 °F (5:55 am)
Humidity32.1 %53 % (9:55 pm)16 % (3:55 pm)
Barometer30.16 in30.25 in (11:55 pm)30.09 in (5:55 am)
Wind Speed8.1 mph20.7 mph (10:55 am)
Wind Gust24.2 mph (11:55 am)
Weather ElementAverage
Visibility10 mi
Wind DirectionS (174.8 °)

Weather ElementTotal
Precipitation---
Heating Degree Days18 (Base 65)
Averaged from 23 records on January 31, 2013
WEATHER CONDITIONS BREAKOUT
WIND DIRECTION BREAKOUT
WEATHER BY HOUR - JANUARY 31, 2013
[ °C ]   °F
Local TimeTemperatureDewpointHumidityBarometerVisibilityWind DirectionWind SpeedGust SpeedPrecipitationEventsConditions
1:55 AM29.8 °F13.5 °F51 %30.14 in10.0 miSSE (160°)6.9 mphClear
2:55 AM29.1 °F13.6 °F52 %30.13 in10.0 miSouth (180°)3.5 mphClear
3:55 AM32.2 °F11.7 °F43 %30.13 in10.0 miSSE (150°)6.9 mphClear
4:55 AM36.0 °F8.8 °F32 %30.11 in10.0 miCalmClear
5:55 AM43.0 °F8.6 °F24 %30.09 in10.0 miSW (230°)12.7 mphClear
6:55 AM38.8 °F9.3 °F30 %30.13 in10.0 miWSW (250°)8.1 mphClear
7:55 AM38.1 °F10.6 °F32 %30.14 in10.0 miWSW (240°)6.9 mphClear
8:55 AM48.4 °F14.0 °F25 %30.15 in10.0 miSouth (190°)12.7 mphClear
9:55 AM52.0 °F14.9 °F23 %30.18 in10.0 miSSW (210°)16.1 mphClear
10:55 AM55.9 °F16.2 °F21 %30.18 in10.0 miWSW (240°)20.7 mphClear
11:55 AM59.9 °F20.1 °F22 %30.17 in10.0 miWSW (250°)16.1 mph24.2 mphClear
12:55 PM61.7 °F20.1 °F20 %30.15 in10.0 miWest (280°)15.0 mph24.2 mphClear
1:55 PM62.6 °F19.8 °F19 %30.12 in10.0 miWest (260°)6.9 mphClear
2:55 PM64.2 °F19.4 °F18 %30.10 in10.0 miWest (270°)9.2 mph19.6 mphClear
3:55 PM64.9 °F18.0 °F16 %30.10 in10.0 miWSW (240°)13.8 mphClear
4:55 PM64.6 °F19.2 °F18 %30.13 in10.0 miWSW (250°)9.2 mphClear
5:55 PM60.8 °F19.0 °F20 %30.13 in10.0 miWest (260°)4.6 mphClear
6:55 PM45.7 °F20.8 °F37 %30.17 in10.0 miCalmClear
7:55 PM43.5 °F21.4 °F41 %30.20 in10.0 miCalmClear
8:55 PM40.6 °F23.2 °F50 %30.22 in10.0 miSouth (170°)4.6 mphClear
9:55 PM39.0 °F23.2 °F53 %30.23 in10.0 miCalmClear
10:55 PM39.4 °F22.5 °F51 %30.23 in10.0 miSSE (150°)3.5 mphClear
11:55 PM46.2 °F22.8 °F40 %30.25 in10.0 miNE (40°)9.2 mphClear
Hourly data recorded from KDYS, located miles away from Hawley, Texas







STORIES FROM OUR PARTNERS